Location: Namasale
(1.5000°N, 32.6167°E)
Time: 20:31:20
(UTC+00:00)

Envisat - Pass Details

Date: 11 December 2021
Orbit: 764 x 766 km, 98.2° (Epoch: 25 January)

Event Time Altitude Azimuth Distance (km) Brightness Sun altitude
Rises 01:24:51 0° 44° (NE) 3,216 6.4 -32.1°
Reaches altitude 10° 01:28:02 10° 65° (ENE) 2,293 5.9 -31.4°
Maximum altitude 01:31:01 16° 102° (ESE) 1,917 5.8 -30.7°
Drops below altitude 10° 01:34:02 10° 139° (SE) 2,297 6.2 -30.0°
Sets 01:37:12 0° 160° (SSE) 3,225 6.9 -29.3°
